Time,TemperatureF,DewpointF,PressureIn,WindDirection,WindDirectionDegrees,WindSpeedMPH,WindSpeedGustMPH,Humidity,HourlyPrecipIn,Conditions,Clouds,dailyrainin,SoftwareType,DateUTC
2013-04-13 00:02:00,43.0,33.0,29.98,SSE,155,2.0,2.0,68,-99.99,,,-99.99,,2013-04-13 05:02:00,
2013-04-13 00:12:00,43.0,33.0,29.98,SSE,150,1.0,3.0,67,-99.99,,,-99.99,,2013-04-13 05:12:00,
2013-04-13 00:22:00,43.0,33.0,29.98,SSE,150,1.0,3.0,67,-99.99,,,-99.99,,2013-04-13 05:22:00,
2013-04-13 00:32:00,42.0,33.0,29.99,SSE,165,0.0,2.0,70,-99.99,,,-99.99,,2013-04-13 05:32:00,
2013-04-13 00:43:00,41.0,33.0,29.99,ESE,120,1.0,2.0,72,-99.99,,,-99.99,,2013-04-13 05:43:00,
2013-04-13 00:52:00,41.0,33.0,29.99,ESE,120,1.0,2.0,72,-99.99,,,-99.99,,2013-04-13 05:52:00,
2013-04-13 01:02:00,41.0,33.0,30.00,SSE,165,1.0,2.0,72,-99.99,,,-99.99,,2013-04-13 06:02:00,
2013-04-13 01:12:00,42.0,33.0,30.00,SSE,165,0.0,2.0,72,-99.99,,,-99.99,,2013-04-13 06:12:00,
2013-04-13 01:24:00,42.0,33.0,30.00,SSE,165,0.0,2.0,72,-99.99,,,-99.99,,2013-04-13 06:24:00,
2013-04-13 01:35:00,41.0,33.0,30.00,South,170,2.0,3.0,73,-99.99,,,-99.99,,2013-04-13 06:35:00,
2013-04-13 01:47:00,40.0,33.0,30.00,SE,125,2.0,4.0,74,-99.99,,,-99.99,,2013-04-13 06:47:00,
2013-04-13 01:53:00,40.0,33.0,30.00,SE,125,2.0,4.0,74,-99.99,,,-99.99,,2013-04-13 06:53:00,
2013-04-13 02:05:00,40.0,32.0,30.00,East,100,2.0,3.0,74,-99.99,,,-99.99,,2013-04-13 07:05:00,
2013-04-13 02:14:00,39.0,32.0,30.00,ESE,115,2.0,3.0,76,-99.99,,,-99.99,,2013-04-13 07:14:00,
2013-04-13 02:24:00,39.0,32.0,30.00,ESE,115,2.0,3.0,76,-99.99,,,-99.99,,2013-04-13 07:24:00,
2013-04-13 02:34:00,38.0,32.0,30.00,SE,130,2.0,3.0,78,-99.99,,,-99.99,,2013-04-13 07:34:00,
2013-04-13 02:45:00,38.0,32.0,30.00,ESE,110,2.0,4.0,78,-99.99,,,-99.99,,2013-04-13 07:45:00,
2013-04-13 02:54:00,38.0,32.0,30.00,ESE,110,2.0,4.0,78,-99.99,,,-99.99,,2013-04-13 07:54:00,
2013-04-13 03:06:00,38.0,33.0,30.00,SE,145,3.0,4.0,80,-99.99,,,-99.99,,2013-04-13 08:06:00,
2013-04-13 03:15:00,39.0,33.0,30.00,SE,140,3.0,5.0,79,-99.99,,,-99.99,,2013-04-13 08:15:00,
2013-04-13 03:25:00,39.0,33.0,30.00,SE,140,3.0,5.0,79,-99.99,,,-99.99,,2013-04-13 08:25:00,
2013-04-13 03:34:00,40.0,33.0,30.00,SSE,160,0.0,2.0,76,-99.99,,,-99.99,,2013-04-13 08:34:00,
2013-04-13 03:45:00,38.0,33.0,30.00,WNW,290,0.0,2.0,80,-99.99,,,-99.99,,2013-04-13 08:45:00,
2013-04-13 03:53:00,38.0,33.0,30.00,WNW,290,0.0,2.0,80,-99.99,,,-99.99,,2013-04-13 08:53:00,
2013-04-13 04:05:00,38.0,32.0,30.00,ESE,105,2.0,3.0,78,-99.99,,,-99.99,,2013-04-13 09:05:00,
2013-04-13 04:14:00,39.0,32.0,30.00,SSE,155,0.0,2.0,76,-99.99,,,-99.99,,2013-04-13 09:14:00,
2013-04-13 04:24:00,39.0,32.0,30.00,SSE,155,0.0,2.0,76,-99.99,,,-99.99,,2013-04-13 09:24:00,
2013-04-13 04:36:00,39.0,33.0,30.00,SSE,155,2.0,3.0,78,-99.99,,,-99.99,,2013-04-13 09:36:00,
2013-04-13 04:49:00,38.0,32.0,30.00,ENE,70,1.0,2.0,79,-99.99,,,-99.99,,2013-04-13 09:49:00,
2013-04-13 05:05:00,38.0,32.0,30.00,East,90,1.0,2.0,79,-99.99,,,-99.99,,2013-04-13 10:05:00,
2013-04-13 05:15:00,38.0,33.0,29.99,East,90,2.0,3.0,79,-99.99,,,-99.99,,2013-04-13 10:15:00,
2013-04-13 05:24:00,38.0,33.0,29.99,East,90,2.0,3.0,79,-99.99,,,-99.99,,2013-04-13 10:24:00,
2013-04-13 05:36:00,39.0,33.0,30.00,South,175,2.0,3.0,79,-99.99,,,-99.99,,2013-04-13 10:36:00,
2013-04-13 05:46:00,40.0,33.0,30.00,South,175,2.0,3.0,77,-99.99,,,-99.99,,2013-04-13 10:46:00,
2013-04-13 05:53:00,40.0,33.0,30.00,South,175,2.0,3.0,77,-99.99,,,-99.99,,2013-04-13 10:53:00,
2013-04-13 06:06:00,39.0,33.0,30.00,SE,125,2.0,3.0,80,-99.99,,,-99.99,,2013-04-13 11:06:00,
2013-04-13 06:13:00,39.0,33.0,30.01,SSE,155,1.0,3.0,79,-99.99,,,-99.99,,2013-04-13 11:13:00,
2013-04-13 06:24:00,39.0,33.0,30.01,SSE,155,1.0,3.0,79,-99.99,,,-99.99,,2013-04-13 11:24:00,
2013-04-13 06:34:00,38.0,33.0,30.00,SE,130,3.0,3.0,79,-99.99,,,-99.99,,2013-04-13 11:34:00,
2013-04-13 06:44:00,38.0,32.0,30.00,ESE,120,2.0,4.0,80,-99.99,,,-99.99,,2013-04-13 11:44:00,
2013-04-13 06:53:00,38.0,32.0,30.00,ESE,120,2.0,4.0,80,-99.99,,,-99.99,,2013-04-13 11:53:00,
2013-04-13 07:00:00,37.0,31.0,30.02,North,5,1.0,2.0,80,-99.99,,,-99.99,,2013-04-13 12:00:00,
2013-04-13 07:08:00,37.0,32.0,30.00,SE,130,2.0,3.0,81,-99.99,,,-99.99,,2013-04-13 12:08:00,
2013-04-13 07:15:00,36.0,31.0,30.01,SE,145,3.0,4.0,81,-99.99,,,-99.99,,2013-04-13 12:15:00,
2013-04-13 07:24:00,36.0,31.0,30.01,SE,145,3.0,4.0,81,-99.99,,,-99.99,,2013-04-13 12:24:00,
2013-04-13 07:35:00,37.0,32.0,30.00,ESE,120,2.0,2.0,81,-99.99,,,-99.99,,2013-04-13 12:35:00,
2013-04-13 07:47:00,37.0,31.0,30.02,North,5,1.0,2.0,80,-99.99,,,-99.99,,2013-04-13 12:47:00,
2013-04-13 07:54:00,37.0,31.0,30.02,North,5,1.0,2.0,80,-99.99,,,-99.99,,2013-04-13 12:54:00,
2013-04-13 08:00:00,42.0,34.0,30.03,North,0,1.0,2.0,72,-99.99,,,-99.99,,2013-04-13 13:00:00,
2013-04-13 08:15:00,38.0,33.0,30.02,NE,45,1.0,3.0,81,-99.99,,,-99.99,,2013-04-13 13:15:00,
2013-04-13 08:34:00,41.0,33.0,30.03,North,5,2.0,3.0,74,-99.99,,,-99.99,,2013-04-13 13:34:00,
2013-04-13 08:47:00,42.0,34.0,30.03,North,0,1.0,2.0,72,-99.99,,,-99.99,,2013-04-13 13:47:00,
2013-04-13 08:53:00,42.0,34.0,30.03,North,0,1.0,2.0,72,-99.99,,,-99.99,,2013-04-13 13:53:00,
2013-04-13 09:14:00,45.0,34.0,30.03,ESE,110,4.0,6.0,67,-99.99,,,-99.99,,2013-04-13 14:14:00,
2013-04-13 09:23:00,45.0,34.0,30.03,ESE,110,4.0,6.0,67,-99.99,,,-99.99,,2013-04-13 14:23:00,
2013-04-13 09:46:00,49.0,37.0,30.03,ENE,65,5.0,7.0,63,-99.99,,,-99.99,,2013-04-13 14:46:00,
2013-04-13 09:55:00,49.0,37.0,30.03,ENE,65,5.0,7.0,63,-99.99,,,-99.99,,2013-04-13 14:55:00,
2013-04-13 10:05:00,50.0,36.0,30.03,North,0,4.0,6.0,57,-99.99,,,-99.99,,2013-04-13 15:05:00,
2013-04-13 10:14:00,51.0,36.0,30.03,SSW,200,2.0,5.0,56,-99.99,,,-99.99,,2013-04-13 15:14:00,
2013-04-13 10:29:00,51.0,36.0,30.03,SSW,200,2.0,5.0,56,-99.99,,,-99.99,,2013-04-13 15:29:00,
2013-04-13 10:35:00,51.0,34.0,30.03,ENE,60,4.0,6.0,51,-99.99,,,-99.99,,2013-04-13 15:35:00,
2013-04-13 10:44:00,52.0,35.0,30.03,ESE,115,5.0,6.0,53,-99.99,,,-99.99,,2013-04-13 15:44:00,
2013-04-13 10:55:00,52.0,35.0,30.03,ESE,115,5.0,6.0,53,-99.99,,,-99.99,,2013-04-13 15:55:00,
2013-04-13 11:00:00,54.0,36.0,30.03,SSE,150,4.0,9.0,50,-99.99,,,-99.99,,2013-04-13 16:00:00,
2013-04-13 11:07:00,54.0,35.0,30.03,West,260,1.0,6.0,47,-99.99,,,-99.99,,2013-04-13 16:07:00,
2013-04-13 11:15:00,53.0,34.0,30.02,SSW,195,4.0,7.0,48,-99.99,,,-99.99,,2013-04-13 16:15:00,
2013-04-13 11:24:00,53.0,34.0,30.02,SSW,195,4.0,7.0,48,-99.99,,,-99.99,,2013-04-13 16:24:00,
2013-04-13 11:35:00,54.0,35.0,30.03,South,180,5.0,9.0,49,-99.99,,,-99.99,,2013-04-13 16:35:00,
2013-04-13 11:54:00,54.0,36.0,30.03,SSE,150,4.0,9.0,50,-99.99,,,-99.99,,2013-04-13 16:54:00,
2013-04-13 12:20:00,55.0,34.0,30.02,SSE,165,3.0,8.0,45,-99.99,,,-99.99,,2013-04-13 17:20:00,
2013-04-13 12:37:00,55.0,37.0,30.02,SE,135,4.0,9.0,49,-99.99,,,-99.99,,2013-04-13 17:37:00,
2013-04-13 12:44:00,55.0,34.0,30.02,SSE,165,5.0,10.0,45,-99.99,,,-99.99,,2013-04-13 17:44:00,
2013-04-13 12:58:00,55.0,34.0,30.02,SSE,165,5.0,10.0,45,-99.99,,,-99.99,,2013-04-13 17:58:00,
2013-04-13 13:05:00,58.0,35.0,30.01,SSE,160,6.0,9.0,42,-99.99,,,-99.99,,2013-04-13 18:05:00,
2013-04-13 13:15:00,56.0,33.0,30.00,SE,140,10.0,12.0,41,-99.99,,,-99.99,,2013-04-13 18:15:00,
2013-04-13 13:24:00,56.0,33.0,30.00,SE,140,10.0,12.0,41,-99.99,,,-99.99,,2013-04-13 18:24:00,
2013-04-13 13:33:00,58.0,32.0,29.99,SE,140,5.0,12.0,37,-99.99,,,-99.99,,2013-04-13 18:33:00,
2013-04-13 13:42:00,58.0,33.0,29.98,SSE,165,10.0,13.0,38,-99.99,,,-99.99,,2013-04-13 18:42:00,
2013-04-13 13:52:00,58.0,33.0,29.98,SSE,165,10.0,13.0,38,-99.99,,,-99.99,,2013-04-13 18:52:00,
2013-04-13 14:03:00,60.0,35.0,29.96,SE,145,10.0,15.0,39,-99.99,,,-99.99,,2013-04-13 19:03:00,
2013-04-13 14:12:00,60.0,35.0,29.96,SSE,155,9.0,23.0,38,-99.99,,,-99.99,,2013-04-13 19:12:00,
2013-04-13 14:22:00,60.0,35.0,29.96,SSE,155,9.0,23.0,38,-99.99,,,-99.99,,2013-04-13 19:22:00,
2013-04-13 14:32:00,61.0,35.0,29.95,South,175,9.0,17.0,37,-99.99,,,-99.99,,2013-04-13 19:32:00,
2013-04-13 14:42:00,61.0,35.0,29.94,SE,135,11.0,21.0,37,-99.99,,,-99.99,,2013-04-13 19:42:00,
2013-04-13 14:52:00,61.0,35.0,29.94,SE,135,11.0,21.0,37,-99.99,,,-99.99,,2013-04-13 19:52:00,
2013-04-13 15:02:00,63.0,35.0,29.92,South,180,10.0,21.0,36,-99.99,,,-99.99,,2013-04-13 20:02:00,
2013-04-13 15:12:00,63.0,35.0,29.92,SSE,160,11.0,16.0,36,-99.99,,,-99.99,,2013-04-13 20:12:00,
2013-04-13 15:22:00,63.0,35.0,29.92,SSE,160,11.0,16.0,36,-99.99,,,-99.99,,2013-04-13 20:22:00,
2013-04-13 15:32:00,62.0,36.0,29.90,SSE,155,10.0,18.0,37,-99.99,,,-99.99,,2013-04-13 20:32:00,
2013-04-13 15:42:00,63.0,36.0,29.90,SE,145,12.0,17.0,37,-99.99,,,-99.99,,2013-04-13 20:42:00,
2013-04-13 15:52:00,63.0,36.0,29.90,SE,145,12.0,17.0,37,-99.99,,,-99.99,,2013-04-13 20:52:00,
2013-04-13 16:02:00,64.0,37.0,29.88,SSE,155,12.0,16.0,36,-99.99,,,-99.99,,2013-04-13 21:02:00,
2013-04-13 16:12:00,65.0,37.0,29.88,SSE,160,13.0,21.0,36,-99.99,,,-99.99,,2013-04-13 21:12:00,
2013-04-13 16:22:00,65.0,37.0,29.88,SSE,160,13.0,21.0,36,-99.99,,,-99.99,,2013-04-13 21:22:00,
2013-04-13 16:33:00,66.0,40.0,29.86,SSE,165,13.0,19.0,38,-99.99,,,-99.99,,2013-04-13 21:33:00,
2013-04-13 16:43:00,66.0,39.0,29.86,SE,140,13.0,21.0,38,-99.99,,,-99.99,,2013-04-13 21:43:00,
2013-04-13 16:52:00,66.0,39.0,29.86,SE,140,13.0,21.0,38,-99.99,,,-99.99,,2013-04-13 21:52:00,
2013-04-13 17:03:00,66.0,39.0,29.85,SSE,160,11.0,21.0,37,-99.99,,,-99.99,,2013-04-13 22:03:00,
2013-04-13 17:12:00,67.0,41.0,29.84,South,180,10.0,21.0,39,-99.99,,,-99.99,,2013-04-13 22:12:00,
2013-04-13 17:22:00,67.0,41.0,29.84,South,180,10.0,21.0,39,-99.99,,,-99.99,,2013-04-13 22:22:00,
2013-04-13 17:33:00,68.0,41.0,29.83,SSE,165,14.0,23.0,37,-99.99,,,-99.99,,2013-04-13 22:33:00,
2013-04-13 17:42:00,67.0,40.0,29.83,SSE,155,19.0,26.0,37,-99.99,,,-99.99,,2013-04-13 22:42:00,
2013-04-13 17:52:00,67.0,40.0,29.83,SSE,155,19.0,26.0,37,-99.99,,,-99.99,,2013-04-13 22:52:00,
2013-04-13 18:02:00,67.0,41.0,29.83,SSE,165,12.0,21.0,38,-99.99,,,-99.99,,2013-04-13 23:02:00,
2013-04-13 18:12:00,67.0,40.0,29.82,South,175,13.0,21.0,38,-99.99,,,-99.99,,2013-04-13 23:12:00,
2013-04-13 18:22:00,67.0,40.0,29.82,South,175,13.0,21.0,38,-99.99,,,-99.99,,2013-04-13 23:22:00,
2013-04-13 18:32:00,67.0,40.0,29.81,SE,145,9.0,20.0,38,-99.99,,,-99.99,,2013-04-13 23:32:00,
2013-04-13 18:42:00,67.0,41.0,29.81,SSE,150,12.0,23.0,39,-99.99,,,-99.99,,2013-04-13 23:42:00,
2013-04-13 18:52:00,67.0,41.0,29.81,SSE,150,12.0,23.0,39,-99.99,,,-99.99,,2013-04-13 23:52:00,
2013-04-13 19:02:00,66.0,41.0,29.81,SSE,155,10.0,23.0,40,-99.99,,,-99.99,,2013-04-14 00:02:00,
2013-04-13 19:12:00,67.0,41.0,29.81,SSE,160,11.0,19.0,40,-99.99,,,-99.99,,2013-04-14 00:12:00,
2013-04-13 19:20:00,64.0,40.0,29.79,SE,140,14.0,19.0,41,-99.99,,,-99.99,,2013-04-14 00:20:00,
2013-04-13 19:22:00,67.0,41.0,29.81,SSE,160,11.0,19.0,40,-99.99,,,-99.99,,2013-04-14 00:22:00,
2013-04-13 19:32:00,65.0,41.0,29.81,SE,135,9.0,19.0,42,-99.99,,,-99.99,,2013-04-14 00:32:00,
2013-04-13 19:42:00,65.0,40.0,29.81,SE,140,14.0,19.0,40,-99.99,,,-99.99,,2013-04-14 00:42:00,
2013-04-13 19:52:00,65.0,40.0,29.81,SE,140,14.0,19.0,40,-99.99,,,-99.99,,2013-04-14 00:52:00,
2013-04-13 20:02:00,64.0,40.0,29.79,SE,140,14.0,19.0,41,-99.99,,,-99.99,,2013-04-14 01:02:00,
2013-04-13 20:12:00,64.0,40.0,29.79,SE,140,14.0,19.0,41,-99.99,,,-99.99,,2013-04-14 01:12:00,
2013-04-13 20:32:00,63.0,40.0,29.79,SE,140,11.0,16.0,43,-99.99,,,-99.99,,2013-04-14 01:32:00,
2013-04-13 20:42:00,62.0,40.0,29.79,SE,130,11.0,19.0,43,-99.99,,,-99.99,,2013-04-14 01:42:00,
2013-04-13 20:52:00,62.0,40.0,29.79,SE,130,11.0,19.0,43,-99.99,,,-99.99,,2013-04-14 01:52:00,
2013-04-13 21:02:00,61.0,40.0,29.79,SE,145,8.0,15.0,46,-99.99,,,-99.99,,2013-04-14 02:02:00,
2013-04-13 21:12:00,61.0,40.0,29.79,SE,130,10.0,15.0,46,-99.99,,,-99.99,,2013-04-14 02:12:00,
2013-04-13 21:22:00,61.0,40.0,29.79,SE,130,10.0,15.0,46,-99.99,,,-99.99,,2013-04-14 02:22:00,
2013-04-13 21:32:00,60.0,40.0,29.79,SE,145,8.0,13.0,47,-99.99,,,-99.99,,2013-04-14 02:32:00,
2013-04-13 21:42:00,60.0,40.0,29.80,SE,125,10.0,14.0,48,-99.99,,,-99.99,,2013-04-14 02:42:00,
2013-04-13 21:52:00,60.0,40.0,29.80,SE,125,10.0,14.0,48,-99.99,,,-99.99,,2013-04-14 02:52:00,
2013-04-13 22:02:00,60.0,40.0,29.81,SE,135,13.0,17.0,48,-99.99,,,-99.99,,2013-04-14 03:02:00,
2013-04-13 22:12:00,60.0,41.0,29.80,SE,140,11.0,17.0,49,-99.99,,,-99.99,,2013-04-14 03:12:00,
2013-04-13 22:22:00,60.0,41.0,29.80,SE,140,11.0,17.0,49,-99.99,,,-99.99,,2013-04-14 03:22:00,
2013-04-13 22:33:00,59.0,40.0,29.80,SSE,150,13.0,18.0,49,-99.99,,,-99.99,,2013-04-14 03:33:00,
2013-04-13 22:42:00,59.0,40.0,29.81,SE,145,14.0,22.0,49,-99.99,,,-99.99,,2013-04-14 03:42:00,
2013-04-13 22:53:00,59.0,40.0,29.81,SE,145,14.0,22.0,49,-99.99,,,-99.99,,2013-04-14 03:53:00,
2013-04-13 23:02:00,59.0,40.0,29.81,SE,140,15.0,19.0,50,-99.99,,,-99.99,,2013-04-14 04:02:00,
2013-04-13 23:12:00,59.0,40.0,29.80,SE,140,19.0,24.0,49,-99.99,,,-99.99,,2013-04-14 04:12:00,
2013-04-13 23:23:00,59.0,40.0,29.80,SE,140,19.0,24.0,49,-99.99,,,-99.99,,2013-04-14 04:23:00,
2013-04-13 23:33:00,58.0,40.0,29.80,SSE,150,16.0,24.0,50,-99.99,,,-99.99,,2013-04-14 04:33:00,
2013-04-13 23:43:00,58.0,40.0,29.80,SE,145,17.0,23.0,51,-99.99,,,-99.99,,2013-04-14 04:43:00,
2013-04-13 23:52:00,58.0,40.0,29.80,SE,145,17.0,23.0,51,-99.99,,,-99.99,,2013-04-14 04:52:00,